Regional Weather Roundup
Issued by NWS Jackson, KY

Home | Current Version | Previous Version | Text Only | Print | Product List | Glossary On
Versions: 1 2 3 4 5 6 7 8 9 10 11 12 13 14 15 16 17 18 19 20 21 22 23 24 25 26 27 28 29 30 31 32 33 34 35 36 37 38 39 40 41 42 43 44 45 46 47 48 49 50
000
ASUS43 KJKL 251619
RWRJKL

EAST KENTUCKY HOURLY WEATHER ROUNDUP
NATIONAL WEATHER SERVICE JACKSON KY
1100 AM EST SUN JAN 25 2015

NOTE: "FAIR" INDICATES FEW OR NO CLOUDS BELOW 12,000 FEET WITH
NO SIGNIFICANT WEATHER AND/OR OBSTRUCTIONS TO VISIBILITY.

* THESE REPORTS ARE NOT UNDER NWS QUALITY CONTROL AND MAY NOT
  REPORT WEATHER SUCH AS PRECIPITATION AND FOG.

KYZ079-080-083-085-087-088-110-112-115-119-120-251700
...EASTERN KENTUCKY...

CITY           SKY/WX    TMP DP  RH WIND       PRES   REMARKS
JACKSON        CLOUDY    41  32  70 SW3       29.79S
LONDON         PTSUNNY   44  30  57 S5        29.79F
SOMERSET*      CLOUDY    39  32  75 S8        29.79F WCI  34
MONTICELLO*    PTSUNNY   45  34  65 SE12      29.80F
MIDDLESBORO*   MOSUNNY   42  32  66 S7        29.85F
HARLAN APT*    PTSUNNY   41  32  70 CALM      29.84S
HAZARD APT*    SUNNY     45  32  61 S5        29.81
BLACK MTN*       N/A     30  28  93 S10         N/A  WCI  21
PIKEVILLE APT* SUNNY     39  30  70 S8        29.80S WCI  34
BIG SANDY*     CLOUDY    42  32  68 S7        29.80S
MOREHEAD APT*  CLOUDY    39  32  75 VRB3      29.78R
ASHLAND*       SUNNY    N/A N/A N/A SE3       29.77F
$$

KYZ035-036-041-042-044-050-067-078-099-251700
...CENTRAL KENTUCKY...

CITY           SKY/WX    TMP DP  RH WIND       PRES   REMARKS
MT STERLING*   CLOUDY    37  32  81 SW13G18   29.77R WCI  29
FLEMING/MASON* CLOUDY    36  31  83 S8        29.77R WCI  29
DANVILLE*      CLOUDY    37  32  81 S10       29.75F WCI  30
RICHMOND*      CLOUDY    41  32  70 S10       29.76S
LEXINGTON      CLOUDY    38  31  76 S8        29.75R WCI  32
FRANKFORT      CLOUDY    39  31  72 S7        29.72F WCI  34
$$

KYZ091>093-OHZ055-061-077-WVZ005-015-034-035-042-251700
...SOUTHERN OHIO/WEST VIRGINIA...

CITY           SKY/WX    TMP DP  RH WIND       PRES   REMARKS
COVINGTON      CLOUDY    39  31  72 S6        29.73R WCI  35
COLUMBUS       FLURRIES  37  31  78 SE3       29.78R
DAYTON         LGT RAIN  36  33  89 S6        29.76R FOG     WCI  31
WILMINGTON     LGT RAIN  36  31  82 S5        29.75R WCI  32
HUNTINGTON     CLOUDY    37  31  78 S6        29.79S WCI  32
CHARLESTON     CLOUDY    41  34  76 CALM      29.80S
PINEVILLE*     PTSUNNY   41  34  77 MISG      29.87F
BECKLEY        PTSUNNY   38  29  70 SW6       29.80S WCI  33
BLUEFIELD      MOSUNNY   36  28  73 W3        29.80F
$$

VAZ002-007-008-TNZ017-027-036-066-071-251700
...SOUTHWEST VIRGINIA/EAST TENNESSEE...

CITY           SKY/WX    TMP DP  RH WIND       PRES   REMARKS
WISE*          PTSUNNY   37  30  75 SW8       29.81F WCI  31
JONESVILLE*    PTSUNNY   39  32  75 CALM      29.89S
ABINGDON*      MOSUNNY   42  31  65 W3        29.86R
BRISTOL        PTSUNNY   41  32  70 CALM      29.87F
KNOXVILLE      PTSUNNY   44  32  62 W6        29.86S
OAK RIDGE      MOSUNNY   41  30  65 SW5       29.88F
CROSSVILLE     PTSUNNY   43  31  62 S10G17    29.81F
NASHVILLE      PTSUNNY   45  34  65 S15       29.75F
$$

...KEY TO REMARKS...
VSB - VISIBILITY IN MILES
WCI - WIND CHILL INDEX
HX  - HEAT INDEX

$$


USA.gov is the U.S. government's official web portal to all federal, state and local government web resources and services.